When you browse on this site, cookies collect data to enhance your experience and personalize the content and advertising you see.
Visit our Privacy Policy to learn more. By continuing to use the site, you agree to this use of cookies and data.
  • In United Kingdom
  • List of Countries
  • For 7 days
  • Water Temperature
  • Satellite Maps
  • Weather Map
  • Weather Widgets
  • user-avatar
    Login

    Hourly Weather Koshelevo

    Today, 19 February, Tuesday

    Time Temperature Precipitation Wind Pressure Humidity
    00:00 +1°C° 0 mm 3 mps 753 mmHg 91%
    01:00 +1°C° 0 mm 3 mps 753 mmHg 91%
    02:00 +1°C° 0 mm 3 mps 752 mmHg 92%
    03:00 +1°C° 0 mm 3 mps 752 mmHg 92%
    04:00 +1°C° 0 mm 3 mps 752 mmHg 92%
    05:00 +1°C° 0 mm 4 mps 751 mmHg 92%
    06:00 0°C° 0 mm 4 mps 751 mmHg 93%
    07:00 0°C° 0 mm 4 mps 750 mmHg 94%
    08:00 0°C° 0 mm 3 mps 750 mmHg 95%
    09:00 0°C° 0 mm 4 mps 750 mmHg 88%
    10:00 +3°C° 0 mm 4 mps 749 mmHg 82%
    11:00 +4°C° 0 mm 4 mps 749 mmHg 76%
    12:00 +5°C° 0 mm 5 mps 749 mmHg 69%
    13:00 +7°C° 0 mm 5 mps 748 mmHg 62%
    14:00 +8°C° 0 mm 5 mps 748 mmHg 55%
    15:00 +8°C° 0 mm 5 mps 747 mmHg 56%
    16:00 +8°C° 0 mm 5 mps 747 mmHg 56%
    17:00 +8°C° 0 mm 4 mps 746 mmHg 56%
    18:00 +7°C° 0 mm 4 mps 746 mmHg 61%
    19:00 +6°C° 0 mm 4 mps 746 mmHg 65%
    20:00 +5°C° 0 mm 4 mps 746 mmHg 70%
    21:00 +5°C° 0 mm 4 mps 746 mmHg 73%
    22:00 +4°C° 0 mm 4 mps 746 mmHg 77%
    23:00 +4°C° 0 mm 4 mps 746 mmHg 80%

    Tomorrow, 20 February, Wednesday

    Time Temperature Precipitation Wind Pressure Humidity
    00:00 +4°C° 0.2 mm 4 mps 746 mmHg 84%
    01:00 +4°C° 0.2 mm 4 mps 746 mmHg 88%
    02:00 +4°C° 0.2 mm 4 mps 746 mmHg 92%
    03:00 +3°C° 0 mm 4 mps 746 mmHg 92%
    04:00 +3°C° 0 mm 4 mps 746 mmHg 92%
    05:00 +1°C° 0 mm 4 mps 746 mmHg 92%
    06:00 +1°C° 0 mm 5 mps 746 mmHg 92%
    07:00 +1°C° 0 mm 5 mps 746 mmHg 92%
    08:00 +1°C° 0 mm 6 mps 746 mmHg 92%
    09:00 +2°C° 0 mm 6 mps 747 mmHg 86%
    10:00 +2°C° 0 mm 6 mps 747 mmHg 80%
    11:00 +3°C° 0 mm 6 mps 747 mmHg 75%
    12:00 +3°C° 0.1 mm 7 mps 747 mmHg 70%
    13:00 +4°C° 0.1 mm 8 mps 747 mmHg 66%
    14:00 +4°C° 0.1 mm 8 mps 748 mmHg 61%
    15:00 +4°C° 0 mm 8 mps 748 mmHg 62%
    16:00 +4°C° 0 mm 7 mps 748 mmHg 62%
    17:00 +3°C° 0 mm 7 mps 748 mmHg 63%
    18:00 +3°C° 0 mm 7 mps 748 mmHg 66%
    19:00 +3°C° 0 mm 7 mps 748 mmHg 68%
    20:00 +2°C° 0 mm 7 mps 749 mmHg 71%
    21:00 +2°C° 0 mm 7 mps 749 mmHg 74%
    22:00 +2°C° 0 mm 6 mps 749 mmHg 76%
    23:00 +1°C° 0 mm 6 mps 750 mmHg 79%

    Day after tomorrow, 21 February, Thursday

    Time Temperature Precipitation Wind Pressure Humidity
    00:00 +1°C° 0 mm 6 mps 750 mmHg 80%
    01:00 +1°C° 0 mm 5 mps 750 mmHg 80%
    02:00 0°C° 0 mm 5 mps 751 mmHg 81%
    03:00 0°C° 0 mm 4 mps 751 mmHg 79%
    04:00 -1°C° 0 mm 4 mps 751 mmHg 78%
    05:00 -1°C° 0 mm 4 mps 751 mmHg 77%
    06:00 -2°C° 0 mm 4 mps 751 mmHg 75%
    07:00 -2°C° 0 mm 4 mps 751 mmHg 74%
    08:00 -1°C° 0 mm 3 mps 751 mmHg 72%
    09:00 -1°C° 0 mm 4 mps 751 mmHg 70%
    10:00 0°C° 0 mm 4 mps 751 mmHg 68%
    11:00 +1°C° 0 mm 4 mps 752 mmHg 65%
    12:00 +1°C° 0.1 mm 4 mps 751 mmHg 67%
    13:00 +2°C° 0.1 mm 3 mps 751 mmHg 69%
    14:00 +2°C° 0.1 mm 3 mps 751 mmHg 71%
    15:00 +3°C° 0.1 mm 2 mps 751 mmHg 73%
    16:00 +4°C° 0.1 mm 1 mps 751 mmHg 76%
    17:00 +4°C° 0.1 mm 1 mps 750 mmHg 78%
    18:00 +3°C° 0.2 mm 1 mps 750 mmHg 79%
    19:00 +2°C° 0.2 mm 2 mps 750 mmHg 80%
    20:00 0°C° 0.2 mm 3 mps 750 mmHg 80%
    21:00 0°C° 0.3 mm 3 mps 751 mmHg 81%
    22:00 -1°C° 0.3 mm 3 mps 751 mmHg 81%
    23:00 -1°C° 0.3 mm 3 mps 751 mmHg 81%

    22 February, Friday

    Time Temperature Precipitation Wind Pressure Humidity
    00:00 -3°C° 0.2 mm 4 mps 751 mmHg 77%
    01:00 -3°C° 0.2 mm 4 mps 751 mmHg 73%
    02:00 -3°C° 0.2 mm 4 mps 752 mmHg 69%
    03:00 -3°C° 0 mm 4 mps 752 mmHg 69%
    04:00 -5°C° 0 mm 5 mps 753 mmHg 68%
    05:00 -5°C° 0 mm 5 mps 754 mmHg 67%
    06:00 -5°C° 0 mm 5 mps 755 mmHg 66%
    07:00 -6°C° 0 mm 6 mps 756 mmHg 65%
    08:00 -8°C° 0 mm 6 mps 757 mmHg 65%
    09:00 -8°C° 0 mm 6 mps 758 mmHg 60%
    10:00 -8°C° 0 mm 6 mps 759 mmHg 56%
    11:00 -8°C° 0 mm 6 mps 760 mmHg 52%
    12:00 -6°C° 0 mm 6 mps 761 mmHg 47%
    13:00 -6°C° 0 mm 6 mps 761 mmHg 43%
    14:00 -5°C° 0 mm 6 mps 762 mmHg 38%
    15:00 -5°C° 0 mm 5 mps 762 mmHg 38%
    16:00 -5°C° 0 mm 5 mps 762 mmHg 38%
    17:00 -5°C° 0 mm 5 mps 763 mmHg 38%
    18:00 -5°C° 0 mm 5 mps 763 mmHg 40%
    19:00 -5°C° 0 mm 4 mps 764 mmHg 42%
    20:00 -5°C° 0 mm 4 mps 764 mmHg 43%
    21:00 -5°C° 0 mm 4 mps 764 mmHg 42%
    22:00 -5°C° 0 mm 4 mps 764 mmHg 41%
    23:00 -6°C° 0 mm 5 mps 765 mmHg 40%

    23 February, Saturday

    Time Temperature Precipitation Wind Pressure Humidity
    00:00 -5°C° 0 mm 4 mps 764 mmHg 41%
    01:00 -7°C° 0 mm 4 mps 764 mmHg 42%
    02:00 -7°C° 0 mm 4 mps 764 mmHg 43%
    03:00 -7°C° 0 mm 4 mps 764 mmHg 46%
    04:00 -8°C° 0 mm 4 mps 764 mmHg 50%
    05:00 -8°C° 0 mm 4 mps 764 mmHg 53%
    06:00 -7°C° 0 mm 3 mps 765 mmHg 55%
    07:00 -7°C° 0 mm 3 mps 765 mmHg 57%
    08:00 -7°C° 0 mm 3 mps 765 mmHg 59%
    09:00 -7°C° 0 mm 3 mps 765 mmHg 56%
    10:00 -5°C° 0 mm 2 mps 765 mmHg 52%
    11:00 -4°C° 0 mm 2 mps 765 mmHg 49%
    12:00 -4°C° 0 mm 2 mps 765 mmHg 46%
    13:00 -3°C° 0 mm 2 mps 764 mmHg 43%
    14:00 -3°C° 0 mm 2 mps 764 mmHg 40%
    15:00 -3°C° 0 mm 2 mps 764 mmHg 40%
    16:00 -3°C° 0 mm 2 mps 764 mmHg 40%
    17:00 -3°C° 0 mm 2 mps 764 mmHg 41%
    18:00 -3°C° 0 mm 2 mps 764 mmHg 43%
    19:00 -3°C° 0 mm 2 mps 764 mmHg 45%
    20:00 -1°C° 0 mm 1 mps 764 mmHg 47%
    21:00 -1°C° 0 mm 1 mps 764 mmHg 47%
    22:00 -2°C° 0 mm 1 mps 764 mmHg 48%
    23:00 -2°C° 0 mm 1 mps 764 mmHg 48%

    24 February, Sunday

    Time Temperature Precipitation Wind Pressure Humidity
    00:00 -2°C° 0 mm 1 mps 764 mmHg 49%
    01:00 -2°C° 0 mm 1 mps 764 mmHg 49%
    02:00 -2°C° 0 mm 1 mps 764 mmHg 49%
    03:00 -2°C° 0 mm 1 mps 764 mmHg 50%
    04:00 -3°C° 0 mm 1 mps 764 mmHg 51%
    05:00 -3°C° 0 mm 1 mps 765 mmHg 51%
    06:00 -3°C° 0 mm 1 mps 765 mmHg 52%
    07:00 -3°C° 0 mm 1 mps 765 mmHg 52%
    08:00 -3°C° 0 mm 1 mps 765 mmHg 53%
    09:00 -4°C° 0 mm 2 mps 765 mmHg 49%
    10:00 -3°C° 0 mm 2 mps 766 mmHg 44%
    11:00 -2°C° 0 mm 2 mps 766 mmHg 40%
    12:00 -2°C° 0 mm 2 mps 766 mmHg 39%
    13:00 -1°C° 0 mm 2 mps 765 mmHg 38%
    14:00 +1°C° 0 mm 2 mps 765 mmHg 37%
    15:00 +1°C° 0 mm 2 mps 765 mmHg 40%
    16:00 +2°C° 0 mm 1 mps 765 mmHg 43%
    17:00 +1°C° 0 mm 1 mps 765 mmHg 46%
    18:00 +1°C° 0 mm 1 mps 765 mmHg 49%
    19:00 0°C° 0 mm 1 mps 765 mmHg 51%
    20:00 -2°C° 0 mm 2 mps 765 mmHg 54%
    21:00 0°C° 0 mm 1 mps 765 mmHg 55%
    22:00 0°C° 0 mm 1 mps 765 mmHg 57%
    23:00 0°C° 0 mm 1 mps 765 mmHg 58%
    Show more